Home   Weather   Skopje   Past weeks

Flag for Macedonia, Republic of Past Weather in Skopje, Macedonia, Republic of — Yesterday and Last 2 Weeks

57 °F

Passing clouds.

Feels Like: 57 °F
Forecast: 51 / 65 °F
Wind: No wind

Location: Skopje-Petrovec

Current Time: Oct 22, 2016 at 7:57:31 PM

Latest Report: Oct 22, 2016 at 7:30 PM

Visibility: N/A

Pressure: 30.07 "Hg

Humidity: 94%

Dew Point: 55 °F

Location of SkopjeLocation

Past Weather in Skopje — Graph


Skopje Temperature Yesterday

Maximum temperature yesterday: 61 °F (at 3:00 PM)
Minimum temperature yesterday: 52 °F (at 12:00 AM)
Average temperature yesterday: 56 °F

High & Low Weather Summary for the Past Weeks

High70 °F (Oct 14, 3:00 PM)100% (Oct 7, 10:00 PM)30.36 "Hg (Oct 7, 10:00 PM)
Low36 °F (Oct 13, 4:30 AM)40% (Oct 12, 5:00 PM)29.68 "Hg (Oct 12, 3:00 AM)
Average54 °F81%30.10 "Hg
* Reported Oct 7 6:00 PM — Oct 22 6:30 PM, Skopje, Weather by CustomWeather, © 2016

Note: Actual official high and low records may vary slightly from our data, if they occured in-between our weather recording intervals... More about our weather records


Skopje Weather History for the Previous 24 Hours

Scroll right to see more
Time TempWeatherWind HumidityBarometerVisibility
6:30 PM
Sat, Oct 22
59 °FPassing clouds.1 mph88%30.07 "HgN/A
6:00 PM59 °FPassing clouds.1 mph88%30.04 "HgN/A
5:30 PM61 °FPartly sunny.1 mph83%30.04 "HgN/A
5:00 PM61 °FPartly sunny.1 mph83%30.04 "HgN/A
4:30 PM61 °FPartly sunny.1 mph77%30.04 "HgN/A
4:00 PM63 °FPartly sunny.No wind73%30.04 "HgN/A
3:30 PM63 °FOvercast.1 mph73%30.04 "HgN/A
3:00 PM63 °FOvercast.1 mph73%30.04 "HgN/A
2:30 PM63 °FOvercast.1 mph73%30.01 "HgN/A
2:00 PM61 °FOvercast.No wind77%30.04 "HgN/A
1:30 PM61 °FOvercast.No wind77%30.04 "HgN/A
1:00 PM61 °FMore clouds than sun.No wind77%30.04 "HgN/A
12:30 PM61 °FMore clouds than sun.1 mph77%30.04 "HgN/A
12:00 PM59 °FMore clouds than sun.2 mph82%30.04 "HgN/A
11:30 AM59 °FMore clouds than sun.2 mph82%30.04 "HgN/A
11:00 AM59 °FMore clouds than sun.1 mph82%30.04 "HgN/A
10:30 AM59 °FMostly cloudy.No wind77%30.04 "HgN/A
10:00 AM57 °FMostly cloudy.No wind82%30.04 "HgN/A
9:30 AM57 °FBroken clouds.No wind82%30.01 "HgN/A
9:00 AM55 °FBroken clouds.1 mph88%30.04 "HgN/A
8:30 AM54 °FMostly cloudy.1 mph94%30.04 "HgN/A
8:00 AM54 °FMostly cloudy.2 mph94%30.01 "HgN/A
7:30 AM54 °FScattered clouds.5 mph94%29.98 "HgN/A
7:00 AM54 °FMostly cloudy.No wind94%29.98 "HgN/A
6:00 AM54 °FMostly cloudy.No wind94%29.98 "HgN/A
5:30 AM54 °FMostly cloudy.3 mph94%29.98 "HgN/A
4:30 AM54 °FRain. Mostly cloudy.3 mph94%29.98 "HgN/A
4:00 AM54 °FRain. Mostly cloudy.3 mph94%29.98 "HgN/A
3:30 AM55 °FRain. Overcast.3 mph88%29.98 "HgN/A
3:00 AM55 °FRain. Overcast.3 mph88%29.98 "HgN/A
2:30 AM55 °FRain. Overcast.3 mph88%29.98 "HgN/A
2:00 AM57 °FLight rain. Overcast.2 mph82%29.98 "HgN/A
1:30 AM55 °FLight rain. Mostly cloudy.No wind88%29.98 "HgN/A
1:00 AM57 °FLight rain. Mostly cloudy.3 mph82%30.01 "HgN/A
12:30 AM57 °FMostly cloudy.3 mph82%30.01 "HgN/A
12:00 AM57 °FMostly cloudy.3 mph82%30.01 "HgN/A
11:30 PM
Fri, Oct 21
57 °FMostly cloudy.8 mph82%30.01 "HgN/A
11:00 PM57 °FMostly cloudy.3 mph82%30.01 "HgN/A
10:30 PM55 °FPartly cloudy.3 mph88%30.04 "HgN/A
10:00 PM55 °FPartly cloudy.7 mph88%30.04 "HgN/A
9:30 PM55 °FPartly cloudy.8 mph88%30.04 "HgN/A
9:00 PM55 °FPartly cloudy.8 mph88%30.04 "HgN/A
8:30 PM57 °FPartly cloudy.7 mph82%30.01 "HgN/A
8:00 PM57 °FPartly cloudy.3 mph82%30.04 "HgN/A
7:30 PM57 °FPassing clouds.5 mph77%30.04 "HgN/A
7:00 PM57 °FPassing clouds.2 mph77%30.04 "HgN/A
Weather by CustomWeather, © 2016

See weather overviewHow to use our weather pages